DW7126 Lourinha PT current weather conditions

sailwx.info

Wind from 005 at 8 knots gusting 14

Air temperature 19.4° C
Dewpoint 16.7° C

Last reported at 2014-Sep-30 18:50 UTC.
Time now 2014-Sep-30 20:00 UTC

Location: N 39°14' W 009°18'.
View on Google Maps.

See reports from other nearby stations

  
Tides and Currents Weather Stations Pressure Air Temp Water Temp Dewpoint Dewpoint Depression Visibility Wind Speed Wind Dir Waves Ship Positions
date/time (UTC)wind fromknots sea level pressurealtimeterstation pressurevisibilityair tempwater tempwave heightnotes
2014-Sep-30 18:50 005 8 gusting 14 19.4
2014-Sep-30 18:45 051 7 gusting 14 19.4
2014-Sep-30 18:40 026 6 gusting 13 19.4
2014-Sep-30 18:35 039 8 gusting 13 19.4
2014-Sep-30 18:30 021 8 gusting 15 20.0
2014-Sep-30 18:25 052 9 gusting 15 20.0
2014-Sep-30 18:20 040 8 gusting 16 20.0
2014-Sep-30 18:15 032 11 gusting 16 20.0
2014-Sep-30 18:10 017 7 gusting 13 20.0
2014-Sep-30 18:05 028 8 gusting 17 20.6
2014-Sep-30 18:00 018 11 gusting 17 20.6
2014-Sep-30 17:55 005 12 gusting 17 20.6
2014-Sep-30 17:50 019 11 gusting 19 21.1
2014-Sep-30 17:45 019 9 gusting 19 21.1
2014-Sep-30 17:40 018 9 gusting 15 21.1
2014-Sep-30 17:35 005 6 gusting 14 21.7
2014-Sep-30 17:30 030 7 gusting 13 21.7
2014-Sep-30 17:25 329 8 gusting 14 21.7
2014-Sep-30 17:20 346 8 gusting 14 21.7
2014-Sep-30 17:15 011 9 gusting 13 22.2
2014-Sep-30 17:10 032 6 gusting 12 22.2
2014-Sep-30 17:05 011 6 gusting 12 22.2
2014-Sep-30 17:00 053 6 gusting 14 22.2
2014-Sep-30 16:55 005 8 gusting 15 22.2
2014-Sep-30 16:50 036 8 gusting 16 22.2
2014-Sep-30 16:45 024 11 gusting 16 22.8
2014-Sep-30 16:40 009 10 gusting 16 22.8
2014-Sep-30 16:35 036 12 gusting 16 22.8
2014-Sep-30 16:30 015 8 gusting 16 22.8
2014-Sep-30 16:25 022 10 gusting 16 23.3
2014-Sep-30 16:20 013 9 gusting 14 23.3
2014-Sep-30 16:15 033 6 gusting 14 23.3
2014-Sep-30 16:10 005 7 gusting 13 23.3
2014-Sep-30 16:05 033 7 gusting 13 23.3
2014-Sep-30 16:00 019 7 gusting 14 23.3
2014-Sep-30 15:55 030 8 gusting 14 23.9
2014-Sep-30 15:50 040 7 gusting 14 23.3
2014-Sep-30 15:45 024 6 gusting 17 23.3
2014-Sep-30 15:40 018 7 gusting 14 23.9
2014-Sep-30 15:35 028 5 gusting 12 23.9
2014-Sep-30 15:30 360 6 gusting 14 23.3
2014-Sep-30 15:25 030 9 gusting 14 23.3
2014-Sep-30 15:20 019 11 gusting 13 23.3
2014-Sep-30 15:15 011 8 gusting 13 23.9
2014-Sep-30 15:10 360 8 gusting 14 23.9
2014-Sep-30 15:05 017 10 gusting 16 23.9
2014-Sep-30 15:00 022 8 gusting 16 23.3
2014-Sep-30 14:55 014 8 gusting 13 23.3
2014-Sep-30 14:50 355 6 gusting 13 23.3
2014-Sep-30 14:45 347 9 gusting 11 23.9
2014-Sep-30 14:40 028 6 gusting 12 23.9
2014-Sep-30 14:35 355 6 gusting 13 23.9
2014-Sep-30 14:30 023 7 gusting 13 23.9
2014-Sep-30 14:25 019 7 gusting 13 23.9
2014-Sep-30 14:20 005 8 gusting 13 23.9
2014-Sep-30 14:15 346 9 gusting 13 23.9
2014-Sep-30 14:10 028 9 gusting 13 23.9
2014-Sep-30 14:05 005 10 gusting 13 23.9
2014-Sep-30 14:00 026 8 gusting 12 23.9
2014-Sep-30 13:55 011 6 gusting 13 23.9
2014-Sep-30 13:50 017 9 gusting 13 24.4
2014-Sep-30 13:45 005 6 gusting 12 23.9
2014-Sep-30 13:40 018 6 gusting 13 23.9
2014-Sep-30 13:35 340 6 gusting 13 24.4
2014-Sep-30 13:30 013 6 gusting 10 24.4
2014-Sep-30 13:25 327 6 gusting 10 24.4
2014-Sep-30 13:20 011 5 gusting 8 23.9
2014-Sep-30 13:15 024 5 gusting 9 23.9
2014-Sep-30 13:10 360 6 gusting 10 23.9
2014-Sep-30 13:05 005 7 gusting 10 23.9
2014-Sep-30 13:00 360 6 gusting 11 23.3
2014-Sep-30 12:55 005 6 gusting 12 23.3
2014-Sep-30 12:50 025 7 gusting 12 23.9
2014-Sep-30 12:45 009 6 gusting 9 23.9
2014-Sep-30 12:40 024 6 gusting 11 23.9
2014-Sep-30 12:35 005 6 gusting 11 23.9
2014-Sep-30 12:30 019 6 gusting 11 23.9
2014-Sep-30 12:25 036 6 gusting 12 23.9
2014-Sep-30 12:20 017 7 gusting 13 23.3
2014-Sep-30 12:15 015 7 gusting 13 23.3
2014-Sep-30 12:10 019 7 gusting 13 23.3
2014-Sep-30 12:05 016 8 gusting 13 23.3
2014-Sep-30 12:00 025 6 gusting 10 22.8
2014-Sep-30 11:55 028 6 gusting 11 23.3
2014-Sep-30 11:50 013 7 gusting 13 22.8
2014-Sep-30 11:45 024 10 gusting 13 22.8
2014-Sep-30 11:40 005 6 gusting 11 22.8
2014-Sep-30 11:35 038 5 gusting 13 22.8
2014-Sep-30 11:30 023 7 gusting 13 22.8
2014-Sep-30 11:25 013 6 gusting 12 22.2
2014-Sep-30 11:20 346 8 gusting 13 22.2
2014-Sep-30 11:15 343 8 gusting 13 22.2
2014-Sep-30 11:10 016 6 gusting 11 22.2
2014-Sep-30 11:05 342 4 gusting 13 22.2
2014-Sep-30 11:00 029 9 gusting 14 22.2
2014-Sep-30 10:55 011 7 gusting 14 22.2
2014-Sep-30 10:50 034 7 gusting 13 22.2
2014-Sep-30 10:45 005 8 gusting 13 22.2
2014-Sep-30 10:40 029 6 gusting 13 21.7
2014-Sep-30 10:35 005 7 gusting 14 21.7
2014-Sep-30 10:30 048 8 gusting 14 21.7
2014-Sep-30 10:25 009 7 gusting 14 22.2
2014-Sep-30 10:20 021 8 gusting 14 22.2
2014-Sep-30 10:15 022 7 gusting 14 21.7
2014-Sep-30 10:10 056 6 gusting 14 21.7
2014-Sep-30 10:05 046 8 gusting 15 21.7
2014-Sep-30 10:00 019 10 gusting 15 21.7
2014-Sep-30 09:55 024 9 gusting 16 21.1
2014-Sep-30 09:50 022 9 gusting 16 21.1
2014-Sep-30 09:45 055 10 gusting 16 20.6
2014-Sep-30 09:40 029 7 gusting 15 20.6
2014-Sep-30 09:35 065 6 gusting 17 20.0
2014-Sep-30 09:30 005 10 gusting 17 20.0
2014-Sep-30 09:25 019 6 gusting 11 20.6
2014-Sep-30 09:20 042 7 gusting 13 20.6
2014-Sep-30 09:15 019 8 gusting 14 20.0
2014-Sep-30 09:10 015 8 gusting 14 20.0
2014-Sep-30 09:05 036 7 gusting 13 20.0
2014-Sep-30 09:00 005 7 gusting 13 20.0
2014-Sep-30 08:55 019 4 gusting 8 19.4
2014-Sep-30 08:50 081 3 gusting 8 19.4
2014-Sep-30 08:45 042 4 gusting 8 18.9
2014-Sep-30 08:40 022 3 gusting 7 18.9
2014-Sep-30 08:35 047 3 gusting 7 18.3
2014-Sep-30 08:30 031 2 gusting 7 18.3
2014-Sep-30 08:25 038 3 gusting 7 17.8
2014-Sep-30 08:20 055 0 gusting 3 17.2
2014-Sep-30 08:15 053 17.2
2014-Sep-30 08:10 055 1 gusting 4 17.2
2014-Sep-30 08:05 067 16.7
2014-Sep-30 08:00 069 0 gusting 2 16.7
2014-Sep-30 07:55 069 0 gusting 1 16.7
2014-Sep-30 07:50 069 16.1
2014-Sep-30 07:45 070 16.1
2014-Sep-30 07:40 069 0 gusting 3 16.1
2014-Sep-30 07:35 067 1 gusting 3 16.1
2014-Sep-30 07:30 094 16.1
2014-Sep-30 07:25 096 16.1
2014-Sep-30 07:20 096 16.1
2014-Sep-30 07:15 096 15.6
2014-Sep-30 07:10 099 15.6
2014-Sep-30 07:05 100 15.6
2014-Sep-30 07:00 054 15.6
2014-Sep-30 06:55 054 15.0
2014-Sep-30 06:50 031 15.0
2014-Sep-30 06:45 031 15.0
2014-Sep-30 06:40 031 15.0
2014-Sep-30 06:35 031 15.6
2014-Sep-30 06:30 026 15.6
2014-Sep-30 06:25 020 15.6
2014-Sep-30 06:20 016 15.6
2014-Sep-30 06:15 016 15.6
2014-Sep-30 06:10 015 15.6
2014-Sep-30 06:05 340 15.6
2014-Sep-30 06:00 340 15.6
2014-Sep-30 05:55 340 15.6
2014-Sep-30 05:50 340 15.6
2014-Sep-30 05:45 340 16.1
2014-Sep-30 04:50 015 15.6
2014-Sep-30 04:45 015 15.6
2014-Sep-30 04:40 024 15.6
2014-Sep-30 04:35 024 0 gusting 4 15.6
2014-Sep-30 04:30 022 16.1
2014-Sep-30 04:25 024 16.1
2014-Sep-30 04:20 024 15.6
2014-Sep-30 04:15 024 16.1
2014-Sep-30 04:10 024 15.6
2014-Sep-30 04:05 024 15.6
2014-Sep-30 04:00 024 15.6
2014-Sep-30 03:55 024 15.6
2014-Sep-30 03:50 024 15.0
2014-Sep-30 03:45 024 15.6
2014-Sep-30 03:40 024 15.6
2014-Sep-30 03:35 030 16.1
2014-Sep-30 03:30 030 15.6
2014-Sep-30 03:25 030 15.6
2014-Sep-30 03:20 030 15.6
2014-Sep-30 03:15 030 15.0
2014-Sep-30 03:10 030 15.0
2014-Sep-30 03:05 030 15.6
2014-Sep-30 03:00 030 0 gusting 2 16.1
2014-Sep-30 02:55 030 15.6
2014-Sep-30 02:50 030 15.6
2014-Sep-30 02:45 030 15.6
2014-Sep-30 02:40 030 15.6
2014-Sep-30 02:35 030 15.6
2014-Sep-30 02:30 030 15.0
2014-Sep-30 02:25 030 15.0
2014-Sep-30 02:20 030 15.0
2014-Sep-30 02:15 030 15.0
2014-Sep-30 02:10 030 15.6
2014-Sep-30 02:05 030 15.6
2014-Sep-30 02:00 030 15.6
2014-Sep-30 01:55 030 15.6
2014-Sep-30 01:50 030 15.6
2014-Sep-30 01:45 030 15.6
2014-Sep-30 01:40 030 16.1
2014-Sep-30 01:35 030 16.1
2014-Sep-30 01:30 030 16.1
2014-Sep-30 01:25 030 16.1
2014-Sep-30 01:20 030 16.1
2014-Sep-30 01:15 030 15.6
2014-Sep-30 01:10 030 15.6
2014-Sep-30 01:05 030 16.1
2014-Sep-30 01:00 030 16.1
2014-Sep-30 00:55 030 16.1
2014-Sep-30 00:50 030 16.1
2014-Sep-30 00:45 030 16.1
2014-Sep-30 00:40 030 15.6
2014-Sep-30 00:35 030 15.6
2014-Sep-30 00:30 030 15.6
2014-Sep-30 00:25 030 15.6
2014-Sep-30 00:20 030 15.6
2014-Sep-30 00:15 030 15.6
2014-Sep-30 00:10 030 16.1
2014-Sep-30 00:05 030 16.1
2014-Sep-30 00:00 030 16.1
2014-Sep-29 23:55 030 15.6
2014-Sep-29 23:50 030 15.6
2014-Sep-29 23:45 030 16.1
2014-Sep-29 23:40 030 16.1
2014-Sep-29 23:35 030 16.7
2014-Sep-29 23:30 030 16.7
2014-Sep-29 23:25 030 16.7
2014-Sep-29 23:20 030 16.7
2014-Sep-29 23:15 030 16.7
2014-Sep-29 23:10 030 16.1
2014-Sep-29 23:05 030 16.1
2014-Sep-29 23:00 030 16.1
2014-Sep-29 22:55 030 16.1
2014-Sep-29 22:50 030 16.7
2014-Sep-29 22:45 030 16.7
2014-Sep-29 22:40 030 16.7
2014-Sep-29 22:35 030 1 gusting 3 16.7
2014-Sep-29 22:30 030 0 gusting 2 16.7
2014-Sep-29 22:25 030 16.7
2014-Sep-29 22:20 030 17.2
2014-Sep-29 22:15 030 17.2
2014-Sep-29 22:10 029 17.2
2014-Sep-29 22:05 029 17.2
2014-Sep-29 22:00 028 0 gusting 1 17.2
2014-Sep-29 21:55 027 17.2
2014-Sep-29 21:50 027 0 gusting 3 17.2
2014-Sep-29 21:45 027 17.2
2014-Sep-29 21:40 027 17.2
2014-Sep-29 21:35 027 17.2
2014-Sep-29 21:30 027 17.2
2014-Sep-29 21:25 027 17.2
2014-Sep-29 21:20 027 17.8
2014-Sep-29 21:15 026 0 gusting 2 17.8
2014-Sep-29 21:10 026 17.8
2014-Sep-29 21:05 026 0 gusting 3 17.8
2014-Sep-29 21:00 026 0 gusting 2 17.8
2014-Sep-29 20:55 024 0 gusting 2 17.8
2014-Sep-29 20:50 024 17.8
2014-Sep-29 20:45 024 17.8
2014-Sep-29 20:40 024 0 gusting 3 17.8
2014-Sep-29 20:35 033 17.8
2014-Sep-29 20:30 035 1 gusting 3 17.8
2014-Sep-29 20:25 036 17.8
2014-Sep-29 20:20 036 18.3
2014-Sep-29 20:16 030 18.3
2014-Sep-29 20:10 030 18.3
2014-Sep-29 20:05 030 18.3
2014-Sep-29 20:00 030 0 gusting 3 18.3
2014-Sep-29 19:55 025 0 gusting 3 18.3
2014-Sep-29 19:50 023 18.3
2014-Sep-29 19:45 020 1 gusting 5 18.9
2014-Sep-29 19:41 015 3 gusting 5 18.9
2014-Sep-29 19:35 022 3 gusting 6 18.9
2014-Sep-29 19:30 022 4 gusting 6 18.9
2014-Sep-29 19:25 028 5 gusting 6 18.9
2014-Sep-29 19:20 018 4 gusting 6 18.9
2014-Sep-29 19:15 011 4 gusting 8 19.4
2014-Sep-29 19:10 360 4 gusting 8 19.4
2014-Sep-29 19:05 005 4 gusting 8 19.4
2014-Sep-29 19:01 355 3 gusting 8 19.4
2014-Sep-29 18:55 014 4 gusting 8 19.4
2014-Sep-29 18:51 355 5 gusting 8 19.4
2014-Sep-29 18:45 335 4 gusting 12 19.4
2014-Sep-29 18:40 005 4 gusting 12 19.4
2014-Sep-29 18:35 360 5 gusting 7 19.4
2014-Sep-29 18:30 339 3 gusting 8 20.0
2014-Sep-29 18:25 017 5 gusting 7 20.0
2014-Sep-29 18:20 014 6 gusting 10 20.0
2014-Sep-29 18:15 355 6 gusting 10 20.0
2014-Sep-29 18:10 346 6 gusting 10 20.0
2014-Sep-29 18:06 021 6 gusting 10 20.6
2014-Sep-29 18:00 346 6 gusting 10 20.6
2014-Sep-29 17:56 329 6 gusting 11 20.6
2014-Sep-29 17:50 346 6 gusting 10 21.1
2014-Sep-29 17:45 348 4 gusting 11 21.1
2014-Sep-29 17:40 360 6 gusting 11 21.1
2014-Sep-29 17:35 015 6 gusting 10 21.1
2014-Sep-29 17:30 336 6 gusting 13 21.1
2014-Sep-29 17:25 337 7 gusting 13 21.1
2014-Sep-29 17:20 005 6 gusting 10 21.1
2014-Sep-29 17:15 326 6 gusting 11 21.1
2014-Sep-29 17:10 319 7 gusting 11 21.1
2014-Sep-29 17:05 325 5 gusting 10 21.7
2014-Sep-29 17:00 301 6 gusting 10 21.7
2014-Sep-29 16:55 338 6 gusting 10 21.7
2014-Sep-29 16:50 329 6 gusting 11 21.7
2014-Sep-29 16:45 326 7 gusting 12 21.1
2014-Sep-29 16:40 322 8 gusting 12 21.1
2014-Sep-29 16:35 331 6 gusting 12 21.1
2014-Sep-29 16:30 336 7 gusting 11 21.7
2014-Sep-29 16:25 293 7 gusting 12 21.7
2014-Sep-29 16:20 284 6 gusting 13 21.7
2014-Sep-29 16:15 306 6 gusting 13 21.7
2014-Sep-29 16:10 346 8 gusting 13 21.7
2014-Sep-29 16:05 336 8 gusting 12 21.7
2014-Sep-29 16:00 344 8 gusting 12 21.7
2014-Sep-29 15:55 334 6 gusting 11 21.7
2014-Sep-29 15:50 315 8 gusting 11 21.1
2014-Sep-29 15:45 312 7 gusting 13 21.7
2014-Sep-29 15:40 328 6 gusting 13 21.7
2014-Sep-29 15:35 328 6 gusting 11 21.7
2014-Sep-29 15:30 286 7 gusting 13 21.7
2014-Sep-29 15:25 302 8 gusting 13 21.7
2014-Sep-29 15:20 311 7 gusting 12 21.1
2014-Sep-29 15:15 311 6 gusting 11 21.7
2014-Sep-29 15:10 334 6 gusting 12 22.2
2014-Sep-29 15:05 329 6 gusting 12 21.7
2014-Sep-29 15:00 311 6 gusting 12 22.2
2014-Sep-29 14:55 346 7 gusting 12 21.7
2014-Sep-29 14:50 317 7 gusting 11 22.2
2014-Sep-29 14:45 333 8 gusting 11 22.2
2014-Sep-29 14:40 296 6 gusting 10 22.2
2014-Sep-29 14:35 303 6 gusting 11 22.2
2014-Sep-29 14:30 315 5 gusting 11 22.2
2014-Sep-29 14:25 318 6 gusting 11 22.2
2014-Sep-29 14:20 329 7 gusting 11 22.8
2014-Sep-29 14:15 324 6 gusting 10 22.2
2014-Sep-29 14:10 337 5 gusting 9 22.2
2014-Sep-29 14:05 313 6 gusting 10 21.7
2014-Sep-29 14:00 310 6 gusting 11 22.2
2014-Sep-29 13:55 325 6 gusting 12 21.7
2014-Sep-29 13:50 309 7 gusting 12 21.7
2014-Sep-29 13:45 298 7 gusting 10 22.2
2014-Sep-29 13:40 335 6 gusting 10 21.7
2014-Sep-29 13:35 303 5 gusting 11 21.7
2014-Sep-29 13:30 294 7 gusting 11 21.7
2014-Sep-29 13:25 325 6 gusting 11 22.2
2014-Sep-29 13:20 299 6 gusting 12 22.2
2014-Sep-29 13:15 315 6 gusting 12 21.7
2014-Sep-29 13:10 317 7 gusting 11 21.7
2014-Sep-29 13:05 338 8 gusting 11 22.2
2014-Sep-29 13:00 294 6 gusting 12 21.7
2014-Sep-29 12:55 315 6 gusting 12 22.2
2014-Sep-29 12:50 304 6 gusting 10 22.2
2014-Sep-29 12:45 306 7 gusting 10 21.7
2014-Sep-29 12:40 319 6 gusting 11 22.2
2014-Sep-29 12:35 331 6 gusting 11 22.2
2014-Sep-29 12:30 320 7 gusting 11 22.2
2014-Sep-29 12:25 327 6 gusting 11 21.7
2014-Sep-29 12:20 333 6 gusting 11 21.7
2014-Sep-29 12:15 296 6 gusting 10 21.7
2014-Sep-29 12:10 320 6 gusting 10 21.7
2014-Sep-29 12:05 328 6 gusting 10 21.7
2014-Sep-29 12:00 334 7 gusting 10 21.7
2014-Sep-29 11:55 311 6 gusting 10 21.7
2014-Sep-29 11:50 272 6 gusting 10 21.7
2014-Sep-29 11:45 323 7 gusting 10 21.1
2014-Sep-29 11:40 318 6 gusting 10 21.1
2014-Sep-29 11:35 317 6 gusting 10 21.7
2014-Sep-29 11:30 264 6 gusting 10 21.1
2014-Sep-29 11:25 324 7 gusting 10 21.7
2014-Sep-29 11:20 328 6 gusting 10 21.1
2014-Sep-29 11:15 306 7 gusting 10 21.1
2014-Sep-29 11:10 288 5 gusting 7 21.7
2014-Sep-29 11:05 281 5 gusting 8 21.7
2014-Sep-29 11:00 300 5 gusting 8 21.7
2014-Sep-29 10:55 342 5 gusting 7 21.7
2014-Sep-29 10:50 331 3 gusting 6 21.1
2014-Sep-29 10:45 313 4 gusting 6 21.7
2014-Sep-29 10:40 338 3 gusting 7 21.7
2014-Sep-29 10:35 355 5 gusting 7 21.1
2014-Sep-29 10:30 322 1 gusting 6 20.6
2014-Sep-29 10:25 313 2 gusting 5 20.6
2014-Sep-29 10:20 298 1 gusting 6 21.7
2014-Sep-29 10:15 043 2 gusting 6 21.1
2014-Sep-29 10:10 348 2 gusting 4 20.6
2014-Sep-29 10:05 319 3 gusting 4 21.1
2014-Sep-29 10:00 346 0 gusting 3 20.6
2014-Sep-29 09:55 015 20.6
2014-Sep-29 09:50 348 0 gusting 3 20.0
2014-Sep-29 09:45 350 0 gusting 3 20.0
2014-Sep-29 09:40 351 20.0
2014-Sep-29 09:35 350 1 gusting 4 20.0
2014-Sep-29 09:30 059 20.6
2014-Sep-29 09:25 059 20.0
2014-Sep-29 09:20 059 0 gusting 2 20.0
2014-Sep-29 09:15 059 19.4
2014-Sep-29 09:10 059 1 gusting 2 18.9
2014-Sep-29 09:05 059 18.9
2014-Sep-29 09:00 059 18.3
2014-Sep-29 08:55 061 18.3
2014-Sep-29 08:50 061 17.8
2014-Sep-29 08:45 062 17.2
2014-Sep-29 08:40 062 16.7
2014-Sep-29 08:35 062 16.7
2014-Sep-29 08:30 065 16.7
2014-Sep-29 08:25 068 16.1
2014-Sep-29 08:20 069 15.6
2014-Sep-29 08:15 069 15.6
2014-Sep-29 08:10 071 15.6
2014-Sep-29 08:05 071 15.6
2014-Sep-29 08:00 072 15.0
2014-Sep-29 07:55 072 14.4
2014-Sep-29 07:50 072 13.9
2014-Sep-29 07:45 071 13.9
2014-Sep-29 07:40 071 13.9
2014-Sep-29 07:35 071 13.3
2014-Sep-29 07:30 071 13.3
2014-Sep-29 07:25 071 12.8
2014-Sep-29 07:20 067 13.3
2014-Sep-29 07:15 068 13.9
2014-Sep-29 07:10 068 13.9
2014-Sep-29 07:05 068 13.3
2014-Sep-29 07:00 062 13.9
2014-Sep-29 06:55 055 13.9
2014-Sep-29 06:50 034 13.9
2014-Sep-29 06:45 034 13.9
2014-Sep-29 06:40 034 13.9
2014-Sep-28 23:30 014 17.2
2014-Sep-28 23:25 014 17.2
2014-Sep-28 23:20 014 17.2
2014-Sep-28 23:15 014 17.2
2014-Sep-28 23:11 014 17.2
2014-Sep-28 23:05 014 17.8
2014-Sep-28 23:00 014 17.8
2014-Sep-28 22:56 014 17.8
2014-Sep-28 22:50 014 17.8
2014-Sep-28 22:45 014 17.8
2014-Sep-28 22:40 014 17.8
2014-Sep-28 22:35 014 17.8
2014-Sep-28 22:30 014 17.8
2014-Sep-28 22:25 014 17.8
2014-Sep-28 22:20 014 17.8
2014-Sep-28 22:15 014 17.8
2014-Sep-28 22:10 014 17.8
2014-Sep-28 22:05 014 0 gusting 1 18.3
2014-Sep-28 22:00 013 18.3
2014-Sep-28 21:55 013 18.3
2014-Sep-28 21:50 013 0 gusting 1 18.3
2014-Sep-28 21:45 013 18.3
2014-Sep-28 21:40 013 18.3
2014-Sep-28 21:35 013 18.3
2014-Sep-28 21:30 013 18.3
2014-Sep-28 21:25 013 18.3
2014-Sep-28 21:20 013 18.3
2014-Sep-28 21:15 013 18.3
2014-Sep-28 21:10 013 18.3
2014-Sep-28 21:05 013 0 gusting 2 18.9
2014-Sep-28 21:00 355 18.9
2014-Sep-28 20:55 355 0 gusting 2 18.9
2014-Sep-28 20:50 348 0 gusting 1 18.9
2014-Sep-28 20:45 347 18.9
2014-Sep-28 20:40 347 18.9
2014-Sep-28 20:35 347 18.9
2014-Sep-28 20:30 347 18.9
2014-Sep-28 20:25 347 18.9
2014-Sep-28 20:20 347 18.9
2014-Sep-28 20:15 355 18.9
2014-Sep-28 20:10 355 18.9
2014-Sep-28 20:05 351 0 gusting 3 19.4
2014-Sep-28 20:00 355 1 gusting 3 19.4